GW4764 Weather Reports


Display with metric or nautical units.
time (UTC)temp
F
wind
direction
speed
MPH
gust
MPH
rain 1hr
in
rain 24hr
in
rain mn
in
humidity
%
barometer
mb
20260502163012 44 9 2.0 7.0 0.00 0.00 0.00 50 1017.5
20260502161506 43 290 2.0 10.0 0.00 0.00 0.00 51 1017.7
20260502151504 43 311 2.0 5.0 0.00 0.00 0.00 50 1017.6
20260502123013 37 346 3.0 8.0 0.00 0.00 0.00 72 1017.8
20260502121513 36 316 2.0 7.0 0.00 0.00 0.00 75 1017.7
20260502114521 34 265 0.0 4.0 0.00 0.00 0.00 80 1017.6
20260502113006 33 346 2.0 4.0 0.00 0.00 0.00 83 1017.5
20260502111508 31 342 0.0 2.0 0.00 0.00 0.00 89 1017.4
20260502110014 30 352 0.0 1.0 0.00 0.00 0.00 90 1017.2
20260502104522 29 352 0.0 0.0 0.00 0.00 0.00 90 1017.2
20260502103031 30 352 0.0 0.0 0.00 0.00 0.00 90 1017.2
20260502101528 30 352 0.0 0.0 0.00 0.00 0.00 90 1017.1
20260502091525 32 352 0.0 1.0 0.00 0.00 0.00 87 1016.7
20260502071505 37 360 0.0 2.0 0.00 0.00 0.00 75 1016.3
20260502070007 38 80 0.0 2.0 0.00 0.00 0.00 71 1016.1
20260502064504 38 81 0.0 2.0 0.00 0.00 0.00 69 1016.4
20260502063002 38 84 0.0 2.0 0.00 0.00 0.00 72 1016.4
20260502061505 38 68 0.0 2.0 0.00 0.00 0.00 68 1016.7
20260502060009 38 349 0.0 2.0 0.00 0.00 0.00 66 1016.7
20260502054507 38 13 0.0 2.0 0.00 0.00 0.00 66 1016.8
20260502053004 39 352 0.0 1.0 0.00 0.00 0.00 64 1016.6
20260502051506 39 352 0.0 3.0 0.00 0.00 0.00 63 1016.6
20260502050008 39 311 0.0 2.0 0.00 0.00 0.00 64 1016.6
20260502044503 39 338 0.0 2.0 0.00 0.00 0.00 62 1016.4
20260502043004 39 64 1.0 6.0 0.00 0.00 0.00 63 1016.4
20260502041507 39 9 1.0 4.0 0.00 0.00 0.00 64 1016.3
20260502040007 39 322 1.0 3.0 0.00 0.00 0.00 65 1016.3
20260502034512 39 352 0.0 2.0 0.00 0.00 0.00 66 1016.1
20260502033006 40 336 0.0 1.0 0.00 0.00 0.00 68 1016.1
20260502031508 40 351 0.0 2.0 0.00 0.00 0.00 66 1016.0
20260502030008 40 17 1.0 4.0 0.00 0.00 0.00 65 1016.2
20260502024506 40 39 0.0 7.0 0.00 0.00 0.00 64 1016.1
20260502023011 41 5 0.0 8.0 0.00 0.00 0.00 64 1016.0
20260502021508 41 360 1.0 7.0 0.00 0.00 0.00 62 1015.9
20260502020010 41 329 1.0 3.0 0.00 0.00 0.00 63 1015.6
20260502014510 41 327 1.0 5.0 0.00 0.00 0.00 63 1015.7
20260502013010 41 273 0.0 2.0 0.00 0.00 0.00 62 1015.5
20260502011522 41 270 1.0 5.0 0.00 0.00 0.00 62 1015.4
20260502010013 42 336 1.0 7.0 0.00 0.00 0.00 62 1015.3
20260502004514 42 333 1.0 10.0 0.00 0.00 0.00 62 1015.3
20260502003014 42 340 0.0 4.0 0.00 0.00 0.00 63 1015.0
20260502001519 42 249 0.0 3.0 0.00 0.00 0.00 63 1015.1
20260502000016 43 277 1.0 4.0 0.00 0.00 0.00 62 1014.7
20260501234511 43 340 0.0 2.0 0.00 0.00 0.00 62 1014.7
20260501233021 43 304 1.0 4.0 0.00 0.00 0.00 61 1014.8
20260501231519 43 344 1.0 6.0 0.00 0.00 0.00 62 1014.7
20260501230006 44 360 1.0 9.0 0.00 0.00 0.00 61 1014.8
20260501224509 44 311 2.0 8.0 0.00 0.00 0.00 60 1014.7
20260501223010 44 24 2.0 5.0 0.00 0.00 0.00 63 1014.6
20260501221503 43 299 1.0 8.0 0.00 0.00 0.00 62 1014.6
20260501220003 44 5 2.0 7.0 0.00 0.00 0.00 62 1014.6
20260501214506 44 360 2.0 6.0 0.00 0.00 0.00 60 1014.4
20260501213010 44 310 2.0 6.0 0.00 0.00 0.00 60 1014.2
20260501211516 45 299 1.0 7.0 0.00 0.00 0.00 59 1014.0
20260501210009 46 313 0.0 7.0 0.00 0.00 0.00 59 1013.9
20260501204506 47 315 2.0 7.0 0.00 0.00 0.00 55 1013.9
20260501203010 47 51 1.0 10.0 0.00 0.00 0.00 57 1013.7
20260501201516 46 238 2.0 9.0 0.00 0.00 0.00 58 1013.9
20260501200018 47 308 1.0 8.0 0.00 0.00 0.00 56 1013.8
20260501194506 47 242 5.0 9.0 0.00 0.00 0.00 54 1013.7
20260501193008 46 288 2.0 4.0 0.00 0.00 0.00 59 1013.7
20260501191512 46 340 1.0 6.0 0.00 0.00 0.00 58 1013.7
20260501190017 47 265 2.0 6.0 0.00 0.00 0.00 54 1013.6
20260501184525 47 52 1.0 5.0 0.00 0.00 0.00 61 1013.4
20260501183004 47 338 1.0 7.0 0.00 0.00 0.00 56 1013.5
20260501181524 47 13 1.0 4.0 0.00 0.00 0.00 59 1013.4
20260501180015 47 23 3.0 8.0 0.00 0.00 0.00 58 1013.4
20260501174518 46 25 3.0 8.0 0.00 0.00 0.00 59 1013.4
20260501173022 47 279 1.0 9.0 0.00 0.00 0.00 52 1013.4